Location: Newark
(46.7000°N, 60.6000°W)
Time: 14:27:19
(UTC+00:00)

Tiros 1 - All Passes

Search period start: 30 October 2020 00:00
Search period end: 09 November 2020 00:00
Orbit: 630 x 663 km, 48.4° (Epoch: 29 October)

Date Brightness Start Highest point End Pass type
(mag) Time Alt. Az. Time Alt. Az. Time Alt. Az.
30 Oct - 06:30:49 10° SSW 06:35:02 35° SE 06:39:14 10° E visible
30 Oct - 08:12:19 10° WSW 08:16:58 88° NNW 08:21:37 10° ENE visible
30 Oct - 09:54:42 10° W 09:59:20 72° N 10:03:58 10° E visible
30 Oct - 11:36:59 10° WNW 11:41:33 61° SSW 11:46:07 10° SE daylight
30 Oct - 13:20:02 10° W 13:23:06 18° SW 13:26:11 10° S daylight
31 Oct - 05:16:15 10° S 05:19:18 17° SE 05:22:21 10° E night (unlit)
31 Oct - 06:56:17 10° SW 07:00:51 61° SSE 07:05:25 10° ENE visible
31 Oct - 08:38:25 10° W 08:43:04 73° N 08:47:41 10° E visible
31 Oct - 10:20:47 10° WNW 10:25:26 88° NNE 10:30:05 10° ESE daylight
31 Oct - 12:03:10 10° W 12:07:22 35° SW 12:11:36 10° SSE daylight
01 Nov - 05:40:46 10° SSW 05:44:56 33° SE 05:49:05 10° E night (unlit)
01 Nov - 07:22:10 10° WSW 07:26:50 90° SSE 07:31:29 10° ENE visible
01 Nov - 09:04:34 10° W 09:09:11 72° N 09:13:49 10° E visible
01 Nov - 10:46:51 10° WNW 10:51:26 64° SSW 10:56:00 10° ESE daylight
01 Nov - 12:29:47 10° W 12:33:01 19° SW 12:36:16 10° S daylight
02 Nov - 04:26:21 10° S 04:29:14 16° SE 04:32:05 10° E night (unlit)
02 Nov - 06:06:10 10° SW 06:10:44 58° SSE 06:15:18 10° ENE visible
02 Nov - 07:48:17 10° W 07:52:55 74° N 07:57:34 10° E visible
02 Nov - 09:30:39 10° WNW 09:35:18 85° NNE 09:39:57 10° ESE visible
02 Nov - 11:13:00 10° W 11:17:17 37° SSW 11:21:33 10° SE daylight
03 Nov - 04:50:44 10° SSW 04:54:50 31° SE 04:58:55 10° E night (unlit)
03 Nov - 06:32:03 10° WSW 06:36:42 87° SSE 06:41:21 10° ENE visible
03 Nov - 08:14:26 10° W 08:19:04 71° N 08:23:41 10° E visible
03 Nov - 09:56:43 10° WNW 10:01:19 68° SSW 10:05:55 10° ESE visible
03 Nov - 11:39:33 10° W 11:42:57 20° SW 11:46:20 10° S daylight
04 Nov - 03:36:29 10° S 03:39:09 15° SE 03:41:48 10° E night (unlit)
04 Nov - 05:16:04 10° SW 05:20:37 55° SSE 05:25:09 10° ENE night (unlit)
04 Nov - 06:58:08 10° W 07:02:47 75° N 07:07:25 10° ENE visible
04 Nov - 08:40:31 10° WNW 08:45:10 83° NNE 08:49:49 10° ESE visible
04 Nov - 10:22:51 10° W 10:27:11 40° SSW 10:31:29 10° SE daylight
05 Nov - 04:00:42 10° SSW 04:04:44 29° SE 04:08:45 10° E night (unlit)
05 Nov - 05:41:55 10° WSW 05:46:34 84° SSE 05:51:13 10° ENE night (unlit)
05 Nov - 07:24:17 10° W 07:28:55 71° N 07:33:33 10° E visible
05 Nov - 09:06:35 10° WNW 09:11:12 71° SSW 09:15:47 10° ESE visible
05 Nov - 10:49:20 10° W 10:52:52 22° SW 10:56:23 10° S daylight
06 Nov - 02:46:39 10° SSE 02:49:04 14° SE 02:51:28 10° ESE night (unlit)
06 Nov - 04:25:58 10° SW 04:30:31 52° SSE 04:35:01 10° ENE night (unlit)
06 Nov - 06:07:59 10° W 06:12:39 76° N 06:17:17 10° ENE visible
06 Nov - 07:50:23 10° WNW 07:55:02 81° N 07:59:41 10° E visible
06 Nov - 09:32:42 10° WNW 09:37:04 42° SSW 09:41:26 10° SE visible
06 Nov - 11:17:42 10° SW 11:18:21 10° SW 11:19:01 10° SW daylight
07 Nov - 03:10:41 10° SSW 03:14:38 27° SE 03:18:34 10° E night (unlit)
07 Nov - 04:51:45 10° WSW 04:56:26 81° SSE 05:01:05 10° ENE night (unlit)
07 Nov - 06:34:07 10° W 06:38:47 71° N 06:43:24 10° E visible
07 Nov - 08:16:26 10° WNW 08:21:05 74° SSW 08:25:41 10° ESE visible
07 Nov - 09:59:07 10° W 10:02:47 23° SW 10:06:26 10° SSE visible
08 Nov - 01:56:52 10° SSE 01:58:59 13° SE 02:01:06 10° ESE night (unlit)
08 Nov - 03:35:53 10° SW 03:40:23 49° SSE 03:44:53 10° ENE night (unlit)
08 Nov - 05:17:49 10° W 05:22:30 77° N 05:27:09 10° ENE night (unlit)
08 Nov - 07:00:14 10° WNW 07:04:54 79° N 07:09:32 10° E visible
08 Nov - 08:42:33 10° WNW 08:46:58 45° SSW 08:51:22 10° SE visible
08 Nov - 10:26:52 10° WSW 10:28:17 11° SW 10:29:43 10° SSW visible
